Regional Weather Roundup
Issued by NWS Goodland, KS

Home | Current Version | Previous Version | Graphics & Text | Print | Product List | Glossary On
Versions: 1 2 3 4 5 6 7 8 9 10 11 12 13 14 15 16 17 18 19 20 21 22 23 24 25 26 27 28 29 30 31 32 33 34 35 36 37 38 39 40 41 42 43 44 45 46 47 48 49 50
000
ASUS43 KGLD 242159
RWRGLD

GOODLAND FORECAST AREA HOURLY WEATHER ROUNDUP
NATIONAL WEATHER SERVICE GOODLAND KS
300 PM MST WED DEC 24 2014

...OFFICIAL OBSERVATIONS...

CITY           SKY/WX    TMP DP  RH WIND       PRES   REMARKS
GOODLAND KS    MOSUNNY   42  22  44 SW15      29.73F
HILL CITY KS   SUNNY     46  15  28 SW13      29.76F
IMPERIAL NEB   SUNNY     45  21  38 SW13      29.68F
MCCOOK NEB     MOSUNNY   44  18  35 SW12      29.72S
AKRON CO       SUNNY     41  22  46 S8        29.66F
BURLINGTON CO  MOSUNNY   40  18  41 SW16      29.73S
LIMON CO       SUNNY     44  19  36 S10       29.71F
$$

...UNOFFICIAL OBSERVATIONS...

CITY           SKY/WX    TMP DP  RH WIND       PRES   REMARKS
COLBY KS       SUNNY     43  28  56 SW10      29.75R
GOVE KS          N/A     47  32  56 MISG        N/A
NORTON KS      SUNNY     41  18  38 SW13      29.74R
KIT CARSON CO    N/A     41  14  33 MISG        N/A
YUMA CO          N/A     44  23  43 SW10        N/A
$$


USA.gov is the U.S. government's official web portal to all federal, state and local government web resources and services.